Home   Weather   Langenthal   Past weeks

Flag for Switzerland Past Weather in Langenthal, Bern, Switzerland — Yesterday and Last 2 Weeks

Now
63 °F

Mild.


Feels Like: 63 °F
Forecast: 59 / 71 °F
Wind: 2 mph from Southwest

Location: Wynau

Current Time: Jul 22, 2017 at 2:59:31 am

Latest Report: Jul 22, 2017 at 2:00 am


Visibility: N/A

Pressure: 29.94 "Hg

Humidity: 95%

Dew Point: 61 °F

Location of LangenthalLocation

Past Weather in Langenthal — Graph

°F

Langenthal Temperature Yesterday

Maximum temperature yesterday: 81 °F (at 4:00 pm)
Minimum temperature yesterday: 61 °F (at 6:00 am)
Average temperature yesterday: 68 °F

High & Low Weather Summary for the Past Weeks

 TemperatureHumidityPressure
High89 °F (Jul 7, 4:00 pm)100% (Jul 9, 1:00 am)30.29 "Hg (Jul 9, 1:00 am)
Low51 °F (Jul 16, 3:00 am)31% (Jul 19, 5:00 pm)29.75 "Hg (Jul 21, 5:00 pm)
Average69 °F73%30.02 "Hg
* Reported Jul 7 1:00 am — Jul 22 1:00 am, Langenthal. Weather by CustomWeather, © 2017

Note: Actual official high and low records may vary slightly from our data, if they occured in-between our weather recording intervals... More about our weather records

Advertising

Langenthal Weather History for the Previous 24 Hours

Scroll right to see more
 ConditionsComfort  
Time TempWeatherWind HumidityBarometerVisibility
1:00 am
Sat, Jul 22
64 °FMild.3 mph95%29.95 "HgN/A
12:00 am63 °FMild.3 mph97%29.95 "HgN/A
11:00 pm
Fri, Jul 21
63 °FMild.2 mph97%29.95 "HgN/A
10:00 pm62 °FCool.2 mph97%29.92 "HgN/A
9:00 pm63 °FMild.3 mph96%29.91 "HgN/A
8:00 pm63 °FMild.1 mph92%29.91 "HgN/A
7:00 pm64 °FMild.6 mph88%29.89 "HgN/A
6:00 pm66 °FMild.18 mph75%29.87 "HgN/A
5:00 pm80 °FWarm.6 mph56%29.75 "HgN/A
4:00 pm81 °FWarm.5 mph51%29.78 "HgN/A
3:00 pm80 °FWarm.5 mph51%29.80 "HgN/A
2:00 pm80 °FWarm.6 mph55%29.83 "HgN/A
1:00 pm77 °FWarm.7 mph60%29.85 "HgN/A
12:00 pm76 °FMild.7 mph64%29.87 "HgN/A
11:00 am74 °FMild.6 mph69%29.89 "HgN/A
10:00 am71 °FMild.7 mph74%29.92 "HgN/A
9:00 am68 °FMild.3 mph86%29.93 "HgN/A
8:00 am63 °FMild.3 mph95%29.94 "HgN/A
7:00 am61 °FCool.1 mph100%29.95 "HgN/A
6:00 am61 °FCool.1 mph100%29.95 "HgN/A
5:00 am62 °FCool.1 mph97%29.95 "HgN/A
4:00 am61 °FCool.1 mph98%29.97 "HgN/A
3:00 am63 °FMild.No wind93%29.97 "HgN/A
2:00 am64 °FMild.3 mph94%29.97 "HgN/A
Weather by CustomWeather, © 2017

See weather overviewHow to use our weather pages